Location: Unspecified
(0.0000°N, 0.0000°E)
Time: 22:40:32
(UTC+00:00)

Hubble Space Telescope - Pass Details

Date: 29 November 2022
Orbit: 530 x 534 km, 28.5° (Epoch: 01 December)

Event Time Altitude Azimuth Distance (km) Brightness Sun altitude
Rises 18:43:08 0° 278° (W) 2,658 5.4 -12.7°
Reaches altitude 10° 18:45:42 10° 264° (W) 1,770 4.7 -13.3°
Maximum altitude 18:49:03 24° 209° (SSW) 1,123 3.0 -14.1°
Drops below altitude 10° 18:52:24 10° 154° (SSE) 1,774 3.4 -14.9°
Sets 18:54:59 0° 140° (SE) 2,665 4.1 -15.4°
